Regional Weather Roundup
Issued by NWS

Home | Current Version | Previous Version | Text Only | Print | Product List | Glossary On
Versions: 1 2 3 4 5 6 7 8 9 10 11 12 13 14 15 16 17 18 19 20 21 22 23 24 25 26 27 28 29 30 31 32 33 34 35 36 37 38 39 40 41 42 43 44 45 46 47 48 49 50
000
ASUS44 KFWD 172010
RWRTX
NORTH TEXAS HOURLY WEATHER ROUNDUP
NATIONAL WEATHER SERVICE FORT WORTH TX
300 PM CDT TUE OCT 17 2017

NOTE: "FAIR" INDICATES FEW OR NO CLOUDS BELOW 12,000 FEET WITH NO
SIGNIFICANT WEATHER AND/OR OBSTRUCTIONS TO VISIBILITY.

TXZ118-119-172100-
DALLAS/FORT WORTH METROPLEX

CITY           SKY/WX    TMP DP  RH WIND       PRES   REMARKS
DFW AIRPORT    SUNNY     74  39  28 SW3       30.19F
DALLAS LOVE    SUNNY     74  39  28 CALM      30.20F
FTW MEACHAM    SUNNY     75  43  31 VRB5      30.19F
DAL-EXECUTIVE  SUNNY     74  41  30 CALM      30.20F
FTW-ALLIANCE   SUNNY     75  42  30 S9        30.19F
FTW-NAS-JRB    SUNNY     75  41  29 S7        30.20F
FTW-SPINKS     SUNNY     75  41  29 E5        30.20F
ARLINGTON      SUNNY     73  42  32 VRB3      30.20F
GRAND PRAIRIE  SUNNY     73  39  29 CALM      30.22F
ADDISON        SUNNY     72  39  30 S3        30.22F
MESQUITE       SUNNY     73  37  27 S3        30.21F
LANCASTER      SUNNY     73  40  30 W3        30.22F
$$

TXZ091>094-102>105-117-120-121-131>134-172100-
NORTH CENTRAL TEXAS

CITY           SKY/WX    TMP DP  RH WIND       PRES   REMARKS
SHRMAN/DENISON SUNNY     73  41  32 SE7       30.21F
GAINESVILLE    SUNNY     72  41  32 SE9       30.21F
BOWIE          SUNNY     73  44  34 SE7       30.19F
BRIDGEPORT     SUNNY     74  41  29 SE7       30.20F
DECATUR        SUNNY     74  42  31 S7        30.18F
DENTON         SUNNY     73  43  33 VRB5      30.19F
MCKINNEY       SUNNY     72  40  31 S6        30.21F
BONHAM         SUNNY     71  39  31 SE7       30.21F
GREENVILLE     SUNNY     75  36  23 SE3       30.22F
ROCKWALL       SUNNY     73  40  30 CALM      30.21F
TERRELL        SUNNY     76  35  22 NE6       30.20F
WAXAHACHIE     SUNNY     74  42  31 CALM      30.22F
CLEBURNE       SUNNY     73  43  33 VRB7      30.22F
GRANBURY       SUNNY     76  42  29 E3        30.20F
$$

TXZ083>090-098>101-113>116-127>130-139>142-154-155-172100-
WESTERN NORTH TEXAS

CITY           SKY/WX    TMP DP  RH WIND       PRES   REMARKS
WICHITA FALLS  SUNNY     75  41  29 S10G18    30.16F
WF-KICKAPOO    SUNNY     75  41  29 SE15      30.19F
VERNON         SUNNY     79  27  15 S13       30.15F
ABILENE        SUNNY     75  36  24 S10       30.19F
ABILENE-DYESS  SUNNY     76  42  29 S10       30.17F
GRAHAM         SUNNY     78  42  27 S6        30.16F
BRECKENRIDGE   SUNNY     81  34  18 S6        30.17F HAZE
CISCO          SUNNY     77  36  22 S7G15     30.20F
EASTLAND       SUNNY     77  41  27 S12G17    30.18F
RANGER         SUNNY     75  41  29 SW8       30.19F
MINERAL WELLS  SUNNY     77  39  25 VRB6      30.17F
STEPHENVILLE   SUNNY     74  39  27 CALM      30.22F
COMANCHE       SUNNY     77  42  28 CALM      30.20F
BROWNWOOD      SUNNY     77  36  22 SE8       30.19F
COLEMAN        SUNNY     77  35  21 S5        30.20F
$$

TXZ143>147-156>162-174-175-172100-
CENTRAL TEXAS

CITY           SKY/WX    TMP DP  RH WIND       PRES   REMARKS
WACO           SUNNY     75  41  29 VRB5      30.20F
WACO-TSTC      SUNNY     77  37  24 VRB3      30.20F
WACO-MCGREGOR  SUNNY     74  40  29 VRB6      30.20F
HILLSBORO      SUNNY     74  42  31 CALM      30.20F
CORSICANA      SUNNY     74  39  28 VRB3      30.21F
MEXIA          SUNNY     75  37  25 CALM      30.19F
HEARNE         SUNNY     76  43  30 NE3       30.20F
CAMERON        SUNNY     76  43  30 N6        30.19F
TEMPLE         SUNNY     76  41  28 SW5       30.20F
KILLEEN        SUNNY     74  42  30 CALM      30.19F
KILLEEN-SKYLRK SUNNY     74  44  34 VRB5      30.20F
FORT HOOD      SUNNY     74  42  32 CALM      30.17F
GATESVILLE     SUNNY     73  43  33 CALM      30.22F
HAMILTON       SUNNY     75  40  28 SW3       30.21F HAZE
LAMPASAS       SUNNY     76  42  30 CALM      30.19F
$$

TXZ095>097-106>112-122>126-135>138-148>153-164>167-172100-
EAST TEXAS

CITY           SKY/WX    TMP DP  RH WIND       PRES   REMARKS
PARIS          SUNNY     72  42  34 SE5       30.22F
SULPHUR SPRNGS SUNNY     73  36  26 NE7       30.23F
MOUNT PLEASANT SUNNY     71  39  31 CALM      30.23F
GILMER         SUNNY     71  37  28 E5        30.21F
MINEOLA        SUNNY     73  41  31 SE5       30.21F
TYLER          SUNNY     74  36  25 E7        30.20F
LONGVIEW       SUNNY     75  39  27 CALM      30.20F
MARSHALL       SUNNY     73  37  26 N7        30.23F
ATHENS         SUNNY     72  39  30 CALM      30.19F
PALESTINE      SUNNY     74  42  31 CALM      30.22F
JACKSONVILLE   SUNNY     74  39  28 NE6       30.22F
HENDERSON      SUNNY     75  36  24 N5        30.21F
CENTER         CLEAR     76  45  32 E6        30.21F
NACOGDOCHES    SUNNY     75  44  33 VRB6      30.20F
LUFKIN         SUNNY     74  46  36 VRB6      30.19F
$$

SUPPLEMENTAL OBSERVATIONS (NWS FORT WORTH AREA)

CITY           SKY/WX    TMP DP  RH WIND       PRES   REMARKS
CADDO GRASSLND   N/A     73  39  29 S5          N/A
PAT MAYSE LAKE   N/A     70  34  26 SE5         N/A
GREENVILLE       N/A     75  39  27 SE3         N/A
CEDAR HILL       N/A     75  39  27 S2          N/A
LBJ GRASSLAND    N/A     75  41  29 SE7         N/A
POSSUM KINGDOM   N/A     79  39  24 S8          N/A
GRANBURY         N/A     77  43  29 SE6G14      N/A
MCGREGOR         N/A     77  39  25 E3          N/A
TEMPLE           N/A     79  39  24 N2          N/A
$$

SUPPLEMENTAL OBSERVATIONS (NWS NORMAN AREA)

CITY           SKY/WX    TMP DP  RH WIND       PRES   REMARKS
GOODLETT         N/A     80  34  18 S15G22    30.11F
ODELL            N/A     78  36  22 S15       30.15F
CROWELL          N/A     80  38  22 S16       30.14F
KNOX CITY        N/A     81  32  16 S14       30.15F
SEYMOUR          N/A     79  35  20 S12       30.15F
MILLERS CREEK    N/A     79  37  22 S12         N/A
$$

SUPPLEMENTAL OBSERVATIONS (NWS SAN ANGELO AREA)

CITY           SKY/WX    TMP DP  RH WIND       PRES   REMARKS
WEINERT          N/A     79  36  20 S12       30.16F
HASKELL          N/A     78  31  18 S13       30.16F
THROCKMORTON     N/A     79  39  24 S12       30.17F
STAMFORD         N/A     79  37  22 S10       30.17F
CLYDE            N/A     77  37  23 SE8       30.20F
HAMBY            N/A     79  34  19 SW12G26     N/A
COLORADO BEND    N/A     79  37  22 S5          N/A
$$

SUPPLEMENTAL OBSERVATIONS (NWS SHREVEPORT AREA)

CITY           SKY/WX    TMP DP  RH WIND       PRES   REMARKS
TEXARKANA        N/A     75  39  27 NE3         N/A
LINDEN           N/A     75  37  25 E5          N/A
HENDERSON        N/A     79  37  22 E5          N/A
LUFKIN           N/A     75  43  31 MISG        N/A
N SABINE NF      N/A     75  48  38 MISG        N/A
$$

SUPPLEMENTAL OBSERVATIONS ARE A COLLECTION OF AUTOMATED INSTRUMENTS
THAT ARE MAINTAINED BY A VARIETY OF FEDERAL AND STATE AGENCIES.
CERTAIN ELEMENTS...SUCH AS HUMIDITY VALUES AND SUSTAINED WIND
SPEEDS...MAY BE APPROXIMATED.





USA.gov is the U.S. government's official web portal to all federal, state and local government web resources and services.